• In Argentina
  • List of Countries
  • For 7 days
  • Water Temperature
  • Weather Map
  • Weather Widgets
  • user-avatar
    Login

    Hourly Weather Etchmiadzin

    Today, 31 March, Tuesday

    Time Temperature Precipitation Wind Pressure Humidity
    00:00 +9°C° 0 mm 3 mps 680 mmHg 53%
    01:00 +9°C° 0 mm 3 mps 680 mmHg 52%
    02:00 +9°C° 0 mm 3 mps 680 mmHg 52%
    03:00 +8°C° 0 mm 2 mps 681 mmHg 51%
    04:00 +8°C° 0 mm 2 mps 681 mmHg 52%
    05:00 +8°C° 0 mm 2 mps 681 mmHg 53%
    06:00 +7°C° 0 mm 2 mps 682 mmHg 54%
    07:00 +9°C° 0 mm 3 mps 682 mmHg 50%
    08:00 +10°C° 0 mm 3 mps 683 mmHg 46%
    09:00 +12°C° 0 mm 3 mps 683 mmHg 43%
    10:00 +13°C° 0 mm 3 mps 683 mmHg 40%
    11:00 +14°C° 0 mm 3 mps 683 mmHg 38%
    12:00 +16°C° 0 mm 3 mps 683 mmHg 36%
    13:00 +15°C° 0 mm 4 mps 682 mmHg 34%
    14:00 +17°C° 0 mm 4 mps 682 mmHg 33%
    15:00 +17°C° 0 mm 4 mps 682 mmHg 32%
    16:00 +17°C° 0 mm 4 mps 682 mmHg 35%
    17:00 +16°C° 0 mm 3 mps 682 mmHg 37%
    18:00 +14°C° 0 mm 3 mps 682 mmHg 40%
    19:00 +15°C° 0 mm 2 mps 683 mmHg 43%
    20:00 +14°C° 0 mm 2 mps 683 mmHg 47%
    21:00 +13°C° 0 mm 2 mps 683 mmHg 50%
    22:00 +12°C° 0 mm 1 mps 683 mmHg 51%
    23:00 +12°C° 0 mm 1 mps 683 mmHg 53%

    Tomorrow, 1 April, Wednesday

    Time Temperature Precipitation Wind Pressure Humidity
    00:00 +12°C° 0 mm 1 mps 683 mmHg 54%
    01:00 +11°C° 0 mm 1 mps 683 mmHg 55%
    02:00 +11°C° 0 mm 1 mps 683 mmHg 55%
    03:00 +10°C° 0 mm 1 mps 683 mmHg 56%
    04:00 +10°C° 0 mm 1 mps 683 mmHg 57%
    05:00 +10°C° 0 mm 1 mps 682 mmHg 58%
    06:00 +9°C° 0 mm 0 mps 682 mmHg 60%
    07:00 +11°C° 0 mm 1 mps 682 mmHg 55%
    08:00 +12°C° 0 mm 2 mps 683 mmHg 50%
    09:00 +13°C° 0 mm 2 mps 683 mmHg 46%
    10:00 +13°C° 0.1 mm 2 mps 682 mmHg 49%
    11:00 +13°C° 0.1 mm 2 mps 682 mmHg 51%
    12:00 +12°C° 0.1 mm 3 mps 681 mmHg 54%
    13:00 +13°C° 0.1 mm 3 mps 681 mmHg 55%
    14:00 +13°C° 0.1 mm 3 mps 680 mmHg 56%
    15:00 +13°C° 0.1 mm 3 mps 680 mmHg 57%
    16:00 +13°C° 1.2 mm 2 mps 679 mmHg 66%
    17:00 +12°C° 1.2 mm 2 mps 679 mmHg 74%
    18:00 +10°C° 1.2 mm 2 mps 679 mmHg 82%
    19:00 +10°C° 1.6 mm 2 mps 679 mmHg 83%
    20:00 +10°C° 1.6 mm 2 mps 679 mmHg 84%
    21:00 +11°C° 1.6 mm 1 mps 679 mmHg 85%
    22:00 +11°C° 0.1 mm 1 mps 679 mmHg 85%
    23:00 +11°C° 0.1 mm 1 mps 679 mmHg 84%

    Day after tomorrow, 2 April, Thursday

    Time Temperature Precipitation Wind Pressure Humidity
    00:00 +10°C° 0.1 mm 0 mps 679 mmHg 84%
    01:00 +10°C° 0.2 mm 1 mps 679 mmHg 84%
    02:00 +10°C° 0.2 mm 1 mps 679 mmHg 85%
    03:00 +10°C° 0.2 mm 1 mps 679 mmHg 85%
    04:00 +10°C° 0.2 mm 1 mps 679 mmHg 85%
    05:00 +9°C° 0.2 mm 1 mps 679 mmHg 85%
    06:00 +9°C° 0.2 mm 1 mps 679 mmHg 85%
    07:00 +10°C° 0 mm 1 mps 680 mmHg 77%
    08:00 +12°C° 0 mm 2 mps 681 mmHg 69%
    09:00 +13°C° 0 mm 2 mps 681 mmHg 62%
    10:00 +13°C° 0.1 mm 3 mps 681 mmHg 55%
    11:00 +14°C° 0.1 mm 3 mps 682 mmHg 49%
    12:00 +16°C° 0.1 mm 3 mps 682 mmHg 43%
    13:00 +16°C° 0 mm 3 mps 681 mmHg 42%
    14:00 +17°C° 0 mm 4 mps 681 mmHg 41%
    15:00 +17°C° 0 mm 4 mps 681 mmHg 39%
    16:00 +17°C° 0 mm 4 mps 681 mmHg 41%
    17:00 +16°C° 0 mm 3 mps 681 mmHg 43%
    18:00 +14°C° 0 mm 3 mps 681 mmHg 44%
    19:00 +13°C° 0 mm 3 mps 682 mmHg 48%
    20:00 +13°C° 0 mm 2 mps 682 mmHg 52%
    21:00 +12°C° 0 mm 1 mps 682 mmHg 56%
    22:00 +12°C° 0 mm 1 mps 682 mmHg 57%
    23:00 +11°C° 0 mm 1 mps 682 mmHg 59%

    3 April, Friday

    Time Temperature Precipitation Wind Pressure Humidity
    00:00 +11°C° 0 mm 1 mps 682 mmHg 60%
    01:00 +10°C° 0 mm 1 mps 682 mmHg 61%
    02:00 +10°C° 0 mm 1 mps 682 mmHg 62%
    03:00 +10°C° 0 mm 1 mps 682 mmHg 63%
    04:00 +9°C° 0 mm 1 mps 682 mmHg 64%
    05:00 +9°C° 0 mm 1 mps 682 mmHg 65%
    06:00 +9°C° 0 mm 1 mps 682 mmHg 66%
    07:00 +11°C° 0 mm 1 mps 683 mmHg 60%
    08:00 +12°C° 0 mm 1 mps 683 mmHg 55%
    09:00 +14°C° 0 mm 1 mps 683 mmHg 49%
    10:00 +15°C° 0 mm 1 mps 683 mmHg 46%
    11:00 +16°C° 0 mm 2 mps 683 mmHg 44%
    12:00 +17°C° 0 mm 2 mps 683 mmHg 41%
    13:00 +17°C° 0 mm 2 mps 683 mmHg 39%
    14:00 +18°C° 0 mm 3 mps 683 mmHg 36%
    15:00 +19°C° 0 mm 3 mps 682 mmHg 34%
    16:00 +18°C° 0 mm 3 mps 682 mmHg 35%
    17:00 +17°C° 0 mm 3 mps 682 mmHg 37%
    18:00 +17°C° 0 mm 2 mps 682 mmHg 39%
    19:00 +16°C° 0 mm 3 mps 683 mmHg 42%
    20:00 +14°C° 0 mm 4 mps 683 mmHg 46%
    21:00 +13°C° 0 mm 4 mps 684 mmHg 49%
    22:00 +13°C° 0.1 mm 3 mps 684 mmHg 53%
    23:00 +12°C° 0.1 mm 3 mps 684 mmHg 57%

    4 April, Saturday

    Time Temperature Precipitation Wind Pressure Humidity
    00:00 +12°C° 0.1 mm 2 mps 683 mmHg 61%
    01:00 +12°C° 0.3 mm 2 mps 683 mmHg 66%
    02:00 +12°C° 0.3 mm 2 mps 683 mmHg 70%
    03:00 +10°C° 0.3 mm 2 mps 683 mmHg 75%
    04:00 +11°C° 0 mm 1 mps 683 mmHg 76%
    05:00 +10°C° 0 mm 1 mps 683 mmHg 77%
    06:00 +10°C° 0 mm 1 mps 684 mmHg 79%
    07:00 +11°C° 0 mm 1 mps 684 mmHg 71%
    08:00 +12°C° 0 mm 1 mps 684 mmHg 64%
    09:00 +14°C° 0 mm 1 mps 684 mmHg 56%
    10:00 +15°C° 0.3 mm 1 mps 685 mmHg 51%
    11:00 +16°C° 0.3 mm 2 mps 685 mmHg 45%
    12:00 +17°C° 0.3 mm 2 mps 685 mmHg 40%
    13:00 +17°C° 0.2 mm 4 mps 685 mmHg 36%
    14:00 +16°C° 0.2 mm 5 mps 685 mmHg 33%
    15:00 +17°C° 0.2 mm 7 mps 685 mmHg 29%
    16:00 +16°C° 0 mm 6 mps 685 mmHg 30%
    17:00 +15°C° 0 mm 5 mps 685 mmHg 32%
    18:00 +14°C° 0 mm 4 mps 685 mmHg 33%
    19:00 +13°C° 0 mm 4 mps 686 mmHg 38%
    20:00 +11°C° 0 mm 3 mps 686 mmHg 43%
    21:00 +10°C° 0 mm 3 mps 687 mmHg 48%
    22:00 +10°C° 0 mm 3 mps 687 mmHg 48%
    23:00 +9°C° 0 mm 3 mps 688 mmHg 49%

    5 April, Sunday

    Time Temperature Precipitation Wind Pressure Humidity
    00:00 +9°C° 0 mm 2 mps 688 mmHg 49%
    01:00 +8°C° 0 mm 2 mps 688 mmHg 50%
    02:00 +8°C° 0 mm 2 mps 688 mmHg 51%
    03:00 +7°C° 0 mm 2 mps 688 mmHg 52%
    04:00 +7°C° 0 mm 2 mps 688 mmHg 53%
    05:00 +7°C° 0 mm 2 mps 688 mmHg 53%
    06:00 +6°C° 0 mm 2 mps 689 mmHg 54%
    07:00 +8°C° 0 mm 2 mps 689 mmHg 50%
    08:00 +10°C° 0 mm 2 mps 689 mmHg 45%
    09:00 +12°C° 0 mm 2 mps 689 mmHg 40%
    10:00 +14°C° 0 mm 2 mps 689 mmHg 37%
    11:00 +15°C° 0 mm 2 mps 689 mmHg 34%
    12:00 +16°C° 0 mm 2 mps 689 mmHg 31%
    13:00 +18°C° 0 mm 1 mps 689 mmHg 29%
    14:00 +18°C° 0 mm 1 mps 689 mmHg 27%
    15:00 +19°C° 0 mm 1 mps 688 mmHg 25%
    16:00 +18°C° 0 mm 1 mps 688 mmHg 27%
    17:00 +18°C° 0 mm 1 mps 688 mmHg 29%
    18:00 +16°C° 0 mm 1 mps 688 mmHg 31%
    19:00 +15°C° 0 mm 1 mps 689 mmHg 33%
    20:00 +14°C° 0 mm 2 mps 689 mmHg 35%
    21:00 +13°C° 0 mm 2 mps 689 mmHg 36%
    22:00 +12°C° 0 mm 2 mps 689 mmHg 39%
    23:00 +12°C° 0 mm 2 mps 689 mmHg 42%
    Show more